Weather History for PAEN - January, 2013

Change the Weather History Date:

Wednesday, January 23, 2013

  Actual Average (PANC) Record (PANC)
Temperature  
Mean Temperature 32 °F 17 °F  
Max Temperature 35 °F 23 °F 48 °F (2014)
Min Temperature 28 °F 11 °F -24 °F (1973)
Degree Days  
Heating Degree Days 34    
Month to date heating degree days  
Since 1 July heating degree days  
Cooling Degree Days 0    
Month to date cooling degree days  
Year to date cooling degree days  
Moisture  
Dew Point 26 °F    
Average Humidity 77    
Maximum Humidity 88    
Minimum Humidity 66    
Precipitation  
Precipitation 0.01 in 0.02 in 0.50 in (2014)
Month to date precipitation 0.53  
Year to date precipitation 0.53  
Snow  
Snow 0.00 in 0.40 in 3.80 in (2007)
Month to date snowfall 8.3  
Since 1 July snowfall 46.4  
Snow Depth -    
Sea Level Pressure  
Sea Level Pressure 29.32 in    
Wind  
Wind Speed 12 mph (NNE)    
Max Wind Speed 20 mph    
Max Gust Speed -    
Visibility 10 miles    
Events      
T = Trace of Precipitation, MM = Missing Value Source: NWS Daily Summary

Daily Weather History Graph

Daily Weather History Graph

Search for Another Location

Airport or City:

Trip Planner

Search our weather history database for the weather conditions in past years. The results will help you decide how hot, cold, wet, or windy it might be!

Date:

Astronomy

Jan. 23, 2013 Rise Set
Actual Time 9:41 AM AKST 4:53 PM AKST
Civil Twilight 8:49 AM AKST 5:44 PM AKST
Nautical Twilight 7:56 AM AKST 6:38 PM AKST
Astronomical Twilight 7:06 AM AKST 7:28 PM AKST
Moon 1:56 PM AKST (1/23) 7:17 AM AKST (1/23)
Length of Visible Light 8h 54m
Length of Day
7h 12m
Waxing Gibbous, 90% of the Moon is Illuminated
Jan 23
Waxing Gibbous
Jan 26
Full
Feb 3
Last Quarter
Feb 9
New
Feb 17
First Quarter

Hourly Weather History & Observations

Time (AKST) Temp. Windchill Dew Point Humidity Pressure Visibility Wind Dir Wind Speed Gust Speed Precip Events Conditions
12:53 AM 33.1 °F 25.5 °F 27.0 °F 78% 29.41 in 10.0 mi NNE 9.2 mph - N/A   Overcast
1:53 AM 34.0 °F 25.5 °F 25.0 °F 70% 29.40 in 10.0 mi NE 11.5 mph - N/A   Scattered Clouds
3:53 AM 33.1 °F 22.2 °F 24.1 °F 70% 29.36 in 10.0 mi NNE 17.3 mph - N/A   Clear
4:53 AM 32.0 °F 23.6 °F 24.1 °F 73% 29.36 in 10.0 mi NNE 10.4 mph - 0.01 in   Clear
5:53 AM 33.1 °F 23.4 °F 23.0 °F 66% 29.34 in 10.0 mi NNE 13.8 mph - N/A   Clear
6:53 AM 30.9 °F 22.8 °F 23.0 °F 72% 29.32 in 10.0 mi NNE 9.2 mph - N/A   Clear
7:53 AM 30.9 °F 22.2 °F 23.0 °F 72% 29.31 in 10.0 mi NNE 10.4 mph - N/A   Clear
8:53 AM 32.0 °F 26.4 °F 24.1 °F 73% 29.31 in 10.0 mi ENE 5.8 mph - N/A   Clear
9:53 AM 33.1 °F 24.9 °F 24.1 °F 70% 29.31 in 10.0 mi NE 10.4 mph - N/A   Partly Cloudy
10:53 AM 35.1 °F 25.9 °F 26.1 °F 70% 29.31 in 10.0 mi ENE 13.8 mph - N/A   Partly Cloudy
11:53 AM 34.0 °F 26.0 °F 26.1 °F 73% 29.30 in 10.0 mi NE 10.4 mph - N/A   Partly Cloudy
12:53 PM 35.1 °F 25.9 °F 26.1 °F 70% 29.29 in 10.0 mi NE 13.8 mph - N/A   Clear
1:53 PM 34.0 °F 24.6 °F 27.0 °F 75% 29.28 in 10.0 mi North 13.8 mph - N/A   Scattered Clouds
2:53 PM 34.0 °F 24.2 °F 28.0 °F 79% 29.28 in 10.0 mi North 15.0 mph - N/A   Clear
3:53 PM 33.1 °F 22.2 °F 28.0 °F 82% 29.28 in 10.0 mi North 17.3 mph - N/A   Clear
4:53 PM 33.1 °F 21.5 °F 28.9 °F 85% 29.29 in 10.0 mi NNE 19.6 mph - N/A   Clear
5:53 PM 32.0 °F 21.2 °F 28.9 °F 88% 29.29 in 10.0 mi NNE 16.1 mph - N/A   Partly Cloudy
6:53 PM 32.0 °F 21.6 °F 28.0 °F 85% 29.30 in 10.0 mi NNE 15.0 mph - N/A   Clear
7:53 PM 30.9 °F 21.2 °F 27.0 °F 85% 29.31 in 10.0 mi NE 12.7 mph - N/A   Clear
8:53 PM 30.0 °F 20.5 °F 26.1 °F 85% 29.32 in 10.0 mi NE 11.5 mph - N/A   Clear
9:53 PM 28.9 °F 25.2 °F 25.0 °F 85% 29.33 in 10.0 mi North 3.5 mph - N/A   Clear
10:53 PM 28.0 °F 18.6 °F 24.1 °F 85% 29.34 in 10.0 mi NE 10.4 mph - N/A   Clear
11:53 PM 28.9 °F 18.2 °F 25.0 °F 85% 29.34 in 10.0 mi NE 13.8 mph - N/A   Mostly Cloudy